KORFKECG

Guest
Details From KORF - Norfolk Intl
To KECG - Elizabeth City Cgas Rgnl
Flight Number -
Tags Routegen Generated
Created
Modified
Stats Distance 44 nm / 82 km
Max Altitude 100 ft / 30 m
Waypoints 5
Social Downloads 37
Likes 0
Share

Download

Looking for another format? Having issues loading an existing format? Contact us
Advertisement - Login to hide

Notes

Departing runway 21 KORF. Arriving runway 9 KECG.

Route

KORF +36.83_-076.26 +36.54_-076.17 +36.26_-076.07 KECG

ID Type Via Altitude (ft/m) Position (lat/lon) Dist (leg/tot) Name
O KORF APT - 0 / 0 36.88586 / -76.20829 - / 0 nm
+36.83_-076.26 LATLON - 100 / 30 36.82858 / -76.26355 4 / 4 nm
+36.54_-076.17 LATLON - 100 / 30 36.54300 / -76.16681 17 / 22 nm
+36.26_-076.07 LATLON - 100 / 30 36.25742 / -76.07007 17 / 39 nm
O KECG APT - 0 / 0 36.26051 / -76.15974 4 / 44 nm

Altitude Profile

Advertisement - Login to hide

KORF

Details ICAO KORF (ORF)
Name Norfolk
Region United States
Timezone America/New_York (UTC-4.0)
Stats Elevation 24 ft / 7 m (AMSL)
Location 36.894200° -76.202200°
Runways 2
Magnetic Variation 11.009° W

METAR

KORF 202051Z 09008KT 10SM OVC010 17/14 A3003 RMK AO2 SLP168 T01720139 55002

Decode

TAF

KORF 202100Z 2021/2118 07008KT P6SM SCT015 TEMPO 2021/2023 OVC010 FM210400 10004KT P6SM BKN007 FM210600 VRB03KT 3SM BR BKN005 FM211300 VRB03KT P6SM BKN025 FM211500 05005KT P6SM SCT070

Decode

Departure Runways

ID Width Length Bearing (true/mag) Surface Threshold Overrun Markings Lighting
05 151 ft / 46 m 9,012 ft / 2,747 m 37.69° / 48.69° ASPHALT 1,001 ft / 305 m 197 ft / 60 m PREC-APP CENTERLINE EDGE THRESHOLD MALSR
14 151 ft / 46 m 4,880 ft / 1,487 m 128.11° / 139.12° ASPHALT 217 ft / 66 m 0 ft / 0 m APP EDGE THRESHOLD REIL-OMNI
23 151 ft / 46 m 9,012 ft / 2,747 m 217.70° / 228.71° ASPHALT 0 ft / 0 m 200 ft / 61 m PREC-APP CENTERLINE EDGE THRESHOLD MALSR
32 151 ft / 46 m 4,880 ft / 1,487 m 308.12° / 319.13° ASPHALT 0 ft / 0 m 0 ft / 0 m APP EDGE THRESHOLD REIL-OMNI

KECG

Details ICAO KECG (ECG)
Name Elizabeth City Regional Airport
Region United States
Timezone America/New_York (UTC-4.0)
Stats Elevation 10 ft / 3 m (AMSL)
Location 36.260900° -76.172000°
Runways 1
Magnetic Variation 10.929° W

METAR

KECG 202054Z 06010KT 10SM FEW019 19/14 A3003 RMK AO2 SLP167 T01940139 53005

Decode

TAF

TAF TAF AMD KECG 202100Z 2021/2118 05010KT P6SM SCT015 FM210200 05006KT P6SM BKN012 FM210500 05005KT 4SM BR BKN005 FM211300 02005KT P6SM BKN025 FM211500 05006KT P6SM SCT060

Decode

Destination Runways

ID Width Length Bearing (true/mag) Surface Threshold Overrun Markings Lighting
10 150 ft / 46 m 7,204 ft / 2,196 m 92.41° / 103.34° CONCRETE 0 ft / 0 m 0 ft / 0 m APP CENTERLINE EDGE THRESHOLD
28 150 ft / 46 m 7,204 ft / 2,196 m 272.43° / 283.35° CONCRETE 0 ft / 0 m 0 ft / 0 m APP CENTERLINE EDGE THRESHOLD TDZ REIL-OMNI

Popular Alternatives